DL3NBY Weather Reports


Display with metric or nautical units.
time (UTC)temp
F
wind
direction
speed
MPH
gust
MPH
rain 1hr
in
rain 24hr
in
rain mn
in
humidity
%
barometer
mb
20220809231552 58 0.0 0.0 0.00 0.00 0.00 70 1025.6
20220809230558 58 0.0 1.0 0.00 0.00 0.00 70 1025.7
20220809225526 59 0.0 0.0 0.00 0.00 0.00 70 1025.6
20220809224607 59 0.0 0.0 0.00 0.00 0.00 68 1025.6
20220809223633 59 0.0 1.0 0.00 0.00 0.00 68 1025.6
20220809211604 61 0.0 0.0 0.00 0.00 0.00 63 1025.4
20220809202600 62 0.0 1.0 0.00 0.00 0.00 62 1025.2
20220809200530 64 0.0 0.0 0.00 0.00 0.00 60 1024.9
20220809195616 66 0.0 0.0 0.00 0.00 0.00 57 1024.9
20220809194603 68 0.0 1.0 0.00 0.00 0.00 54 1024.9
20220809192532 71 0.0 0.0 0.00 0.00 0.00 48 1024.7
20220809191619 72 0.0 0.0 0.00 0.00 0.00 47 1024.6
20220809190605 73 0.0 0.0 0.00 0.00 0.00 46 1024.5
20220809185551 74 0.0 0.0 0.00 0.00 0.00 43 1024.4
20220809184536 76 0.0 1.0 0.00 0.00 0.00 42 1024.2
20220809183621 77 0.0 0.0 0.00 0.00 0.00 39 1024.1
20220809182556 78 0.0 2.0 0.00 0.00 0.00 37 1024.0
20220809181542 79 0.0 1.0 0.00 0.00 0.00 36 1024.0
20220809180618 79 135 0.0 2.0 0.00 0.00 0.00 36 1023.8
20220809174548 80 68 0.0 3.0 0.00 0.00 0.00 34 1023.8
20220809173532 82 0.0 2.0 0.00 0.00 0.00 33 1023.7
20220809172615 82 45 1.0 3.0 0.00 0.00 0.00 32 1023.5
20220809170549 83 15 1.0 6.0 0.00 0.00 0.00 31 1023.5
20220809165533 83 51 0.0 3.0 0.00 0.00 0.00 31 1023.4
20220809164620 83 0.0 2.0 0.00 0.00 0.00 31 1023.4
20220809163600 84 99 1.0 3.0 0.00 0.00 0.00 31 1023.5
20220809162543 84 64 1.0 4.0 0.00 0.00 0.00 30 1023.6
20220809161526 84 270 0.0 2.0 0.00 0.00 0.00 29 1023.5
20220809160612 85 23 1.0 6.0 0.00 0.00 0.00 30 1023.5
20220809155556 85 0 0.0 3.0 0.00 0.00 0.00 30 1023.6
20220809154541 85 53 1.0 6.0 0.00 0.00 0.00 30 1023.8
20220809153523 85 45 0.0 4.0 0.00 0.00 0.00 30 1023.7
20220809152610 85 37 1.0 4.0 0.00 0.00 0.00 29 1023.7
20220809151554 85 100 1.0 3.0 0.00 0.00 0.00 29 1023.6
20220809150638 85 342 0.0 2.0 0.00 0.00 0.00 29 1023.8
20220809145608 85 33 1.0 6.0 0.00 0.00 0.00 29 1023.9
20220809144553 84 68 1.0 4.0 0.00 0.00 0.00 31 1023.8
20220809142615 85 30 1.0 4.0 0.00 0.00 0.00 29 1024.0
20220809141546 84 180 0.0 3.0 0.00 0.00 0.00 30 1023.9
20220809140536 85 25 1.0 3.0 0.00 0.00 0.00 30 1024.1
20220809133546 85 117 1.0 2.0 0.00 0.00 0.00 31 1024.0
20220809131619 85 180 1.0 3.0 0.00 0.00 0.00 30 1024.3
20220809130600 84 90 0.0 4.0 0.00 0.00 0.00 32 1024.5
20220809125543 85 37 1.0 4.0 0.00 0.00 0.00 31 1024.5
20220809124524 84 19 0.0 4.0 0.00 0.00 0.00 32 1024.4
20220809123605 83 90 1.0 4.0 0.00 0.00 0.00 32 1024.6
20220809121540 84 59 1.0 3.0 0.00 0.00 0.00 32 1024.4
20220809115600 84 150 1.0 5.0 0.00 0.00 0.00 32 1024.7
20220809114546 83 46 0.0 3.0 0.00 0.00 0.00 33 1024.7
20220809113536 82 118 1.0 3.0 0.00 0.00 0.00 33 1024.7
20220809112524 82 31 1.0 5.0 0.00 0.00 0.00 34 1024.7
20220809111613 82 90 2.0 7.0 0.00 0.00 0.00 34 1025.0
20220809110557 83 72 1.0 4.0 0.00 0.00 0.00 33 1024.9
20220809105536 82 169 1.0 4.0 0.00 0.00 0.00 34 1024.9
20220809103549 82 43 1.0 4.0 0.00 0.00 0.00 35 1025.1
20220809102536 80 123 0.0 4.0 0.00 0.00 0.00 36 1025.0
20220809101521 80 94 1.0 4.0 0.00 0.00 0.00 36 1025.2
20220809100609 80 81 1.0 3.0 0.00 0.00 0.00 36 1025.3
20220809095556 80 84 0.0 2.0 0.00 0.00 0.00 36 1025.2
20220809093559 80 90 1.0 4.0 0.00 0.00 0.00 37 1025.3
20220809091534 79 90 0.0 3.0 0.00 0.00 0.00 37 1025.4
20220809090520 78 107 0.0 4.0 0.00 0.00 0.00 39 1025.4
20220809084554 76 106 0.0 2.0 0.00 0.00 0.00 43 1025.5
20220809082534 74 0.0 1.0 0.00 0.00 0.00 47 1025.5
20220809080536 72 0.0 2.0 0.00 0.00 0.00 49 1025.5
20220809073547 70 0.0 1.0 0.00 0.00 0.00 53 1025.7
20220809072532 69 0.0 0.0 0.00 0.00 0.00 54 1025.7
20220809071620 0 0.0 0.0 0.00 0.00 0.00 1025.6
20220809065553 0 0.0 0.0 0.00 0.00 0.00 1025.6
20220809064537 0 0.0 0.0 0.00 0.00 0.00 1025.5
20220809063520 64 0.0 0.0 0.00 0.00 0.00 61 1025.5
20220809061601 61 0.0 0.0 0.00 0.00 0.00 68 1025.4
20220809060534 60 0.0 0.0 0.00 0.00 0.00 71 1025.4
20220809054605 0 0.0 0.0 0.00 0.00 0.00 1025.2
20220809051611 0 0.0 0.0 0.00 0.00 0.00 1024.9
20220809050556 54 0.0 0.0 0.00 0.00 0.00 79 1024.8
20220809044530 51 0.0 0.0 0.00 0.00 0.00 84 1024.7
20220809043604 49 0.0 0.0 0.00 0.00 0.00 88 1024.6
20220809042546 49 0.0 0.0 0.00 0.00 0.00 88 1024.6
20220809041535 49 0.0 0.0 0.00 0.00 0.00 87 1024.5
20220809040523 49 0.0 0.0 0.00 0.00 0.00 87 1024.5
20220809034556 51 0.0 0.0 0.00 0.00 0.00 84 1024.4
20220809033545 51 0.0 0.0 0.00 0.00 0.00 84 1024.3
20220809032533 51 0.0 0.0 0.00 0.00 0.00 84 1024.3
20220809031522 50 0.0 0.0 0.00 0.00 0.00 84 1024.3
20220809025553 51 0.0 0.0 0.00 0.00 0.00 83 1024.3
20220809023555 53 0.0 0.0 0.00 0.00 0.00 80 1024.2
20220809020519 53 0.0 0.0 0.00 0.00 0.00 79 1024.0
20220809015555 53 0.0 0.0 0.00 0.00 0.00 78 1023.9
20220809013530 55 0.0 0.0 0.00 0.00 0.00 77 1023.7
20220809012618 55 0.0 0.0 0.00 0.00 0.00 74 1023.8
20220809011608 55 0.0 0.0 0.00 0.00 0.00 74 1023.7
20220809010555 56 0.0 0.0 0.00 0.00 0.00 73 1023.8
20220809005543 56 0.0 0.0 0.00 0.00 0.00 72 1023.8
20220809004554 57 0.0 0.0 0.00 0.00 0.00 72 1023.8
20220809002532 57 0.0 0.0 0.00 0.00 0.00 70 1023.9
20220809001617 57 0.0 0.0 0.00 0.00 0.00 69 1023.9
20220808235551 0 0.0 0.0 0.00 0.00 0.00 1023.9
20220808234539 58 0.0 1.0 0.00 0.00 0.00 67 1023.9
20220808233555 58 0.0 1.0 0.00 0.00 0.00 68 1023.9
20220808232540 58 0.0 1.0 0.00 0.00 0.00 67 1023.9